Location: Владивосток
(43.1151°N, 131.8856°E)
Time: 15:41:44
(UTC+10:00)

SEEDS - Pass Details

Date: 03 May 2024
Orbit: 551 x 562 km, 97.7° (Epoch: 19 May)

Event Time Altitude Azimuth Distance (km) Brightness Sun altitude
Rises 04:18:24 0° 27° (NNE) 2,737 ? -17.0°
Reaches altitude 10° 04:20:57 10° 43° (NE) 1,837 ? -16.6°
Maximum altitude 04:24:01 21° 94° (E) 1,261 ? -16.2°
Drops below altitude 10° 04:27:05 10° 145° (SE) 1,827 ? -15.8°
Sets 04:29:36 0° 161° (SSE) 2,717 ? -15.4°
